Chapel Hill, NC

11:54 AM EST on February 09, 2016 (GMT -0500)
Williams

Weather History for KIGX - October, 2011

Change the Weather History Date:

Sunday, October 16, 2011

  Actual Average Record
Temperature  
Mean Temperature 62 °F -  
Max Temperature 77 °F 74 °F 88 °F (1985)
Min Temperature 46 °F 46 °F 29 °F (1987)
Degree Days  
Heating Degree Days 4    
Growing Degree Days 12 (Base 50)    
Moisture  
Dew Point 42 °F    
Average Humidity 48    
Maximum Humidity 74    
Minimum Humidity 28    
Precipitation  
Precipitation 0.00 in - - ()
Sea Level Pressure  
Sea Level Pressure 30.04 in    
Wind  
Wind Speed 4 mph (West)    
Max Wind Speed 9 mph    
Max Gust Speed -    
Visibility 10 miles    
Events      
Averages and records for this station are not official NWS values.
T = Trace of Precipitation, MM = Missing Value Source: NWS Daily Summary

Daily Weather History Graph

Daily Weather History Graph

Search for Another Location

Airport or City:

Trip Planner

Search our weather history database for the weather conditions in past years. The results will help you decide how hot, cold, wet, or windy it might be!

Date:

Astronomy

Oct. 16, 2011 Rise Set
Actual Time 7:23 AM EDT 6:39 PM EDT
Civil Twilight 6:57 AM EDT 7:05 PM EDT
Nautical Twilight 6:28 AM EDT 7:35 PM EDT
Astronomical Twilight 5:58 AM EDT 8:04 PM EDT
Moon 9:32 PM EDT (10/16) 11:31 AM EDT (10/16)
Length of Visible Light 12h 07m
Length of Day
11h 15m
Waning Gibbous, 82% of the Moon is Illuminated
Oct 16
Waning Gibbous
Oct 19
Last Quarter
Oct 26
New
Nov 2
First Quarter
Nov 10
Full

Hourly Weather History & Observations

Time (EDT) Temp. Dew Point Humidity Pressure Visibility Wind Dir Wind Speed Gust Speed Precip Events Conditions
12:56 AM 54.0 °F 37.0 °F 53% 30.04 in 10.0 mi WNW 6.9 mph - N/A   Clear
2:56 AM 57.0 °F 35.1 °F 44% 30.05 in 10.0 mi West 5.8 mph - N/A   Clear
3:56 AM 52.0 °F 37.9 °F 59% 30.06 in 10.0 mi Calm Calm - N/A   Clear
4:56 AM 52.0 °F 37.0 °F 57% 30.08 in 10.0 mi Calm Calm - N/A   Clear
6:56 AM 48.9 °F 39.9 °F 71% 30.10 in 10.0 mi Calm Calm - N/A   Clear
7:56 AM 46.9 °F 39.0 °F 74% 30.12 in 10.0 mi West 4.6 mph - N/A   Clear
8:56 AM 53.1 °F 45.0 °F 74% 30.14 in 10.0 mi Calm Calm - N/A   Clear
9:56 AM 62.1 °F 41.0 °F 46% 30.14 in 10.0 mi Calm Calm - N/A   Clear
10:56 AM 66.9 °F 41.0 °F 39% 30.13 in 10.0 mi Variable 3.5 mph - N/A   Unknown
11:56 AM 71.1 °F 37.9 °F 30% 30.12 in 10.0 mi WNW 5.8 mph - N/A   Clear
12:56 PM 72.0 °F 41.0 °F 33% 30.08 in 10.0 mi Variable 4.6 mph - N/A   Clear
1:56 PM 75.0 °F 39.9 °F 28% 30.04 in 10.0 mi Variable 4.6 mph - N/A   Clear
3:56 PM 77.0 °F 44.1 °F 31% 29.99 in 10.0 mi SW 9.2 mph - N/A   Clear
4:56 PM 77.0 °F 45.0 °F 32% 29.98 in 10.0 mi Variable 4.6 mph - N/A   Clear
5:56 PM 73.0 °F 45.0 °F 37% 29.97 in 10.0 mi Calm Calm - N/A   Unknown
7:56 PM 64.0 °F 46.9 °F 54% 29.97 in 10.0 mi Calm Calm - N/A   Clear
8:56 PM 64.0 °F 46.9 °F 54% 29.97 in 10.0 mi Calm Calm - N/A   Clear
9:56 PM 66.0 °F 45.0 °F 47% 29.97 in 10.0 mi Variable 3.5 mph - N/A   Clear
10:56 PM 66.0 °F 46.0 °F 48% 29.96 in 10.0 mi Variable 5.8 mph - N/A   Clear
11:56 PM 64.0 °F 46.9 °F 54% 29.96 in 10.0 mi Variable 5.8 mph - N/A   Clear